{"data":{"norad_id":57632,"epoch":"2026-05-24T09:32:35.669184Z","epoch_age_seconds":131026,"freshness":"FRESH","line1":"1 57632U 23122A   26144.39763506 -.00000762  00000+0 -18146-4 0  9999","line2":"2 57632  43.0055  25.1059 0002360 243.6609 116.4001 15.27566244153784","mean_motion":15.27566244,"eccentricity":0.000236,"inclination_deg":43.0055,"raan_deg":25.1059,"arg_perigee_deg":243.6609,"mean_anomaly_deg":116.4001,"bstar":-1.8146e-5,"rev_number":15378,"period_min":94.267597602137,"perigee_km":481.47103712178,"apogee_km":484.70953640113,"semimajor_km":6861.2272867615,"source":"CELESTRAK","updated_at":"2026-05-25T13:38:18.361789Z"}}